Location: Marengo
(51.4813°N, 109.7825°W)
Time: 01:10:11
(UTC+00:00)

Envisat - Pass Details

Date: 28 January 2022
Orbit: 764 x 765 km, 98.2° (Epoch: 22 May)

Event Time Altitude Azimuth Distance (km) Brightness Sun altitude
Rises 01:00:41 0° 225° (SW) 3,222 7.5 -9.5°
Reaches altitude 10° 01:04:55 10° 260° (W) 2,303 7.1 -10.1°
Maximum altitude 01:06:23 11° 277° (W) 2,224 6.6 -10.3°
Drops below altitude 10° 01:07:49 10° 294° (WNW) 2,302 6.3 -10.5°
Sets 01:12:10 0° 329° (NNW) 3,242 6.5 -11.2°
